TimeEDT,TemperatureF,Dew PointF,Humidity,Sea Level PressureIn,VisibilityMPH,Wind Direction,Wind SpeedMPH,Gust SpeedMPH,PrecipitationIn,Events,Conditions,WindDirDegrees,DateUTC
12:54 AM,55.0,44.1,67,30.25,10.0,Calm,Calm,-,N/A,,Mostly Cloudy,0,2013-05-27 04:54:00
1:54 AM,52.0,45.0,77,30.26,10.0,North,5.8,-,N/A,,Mostly Cloudy,10,2013-05-27 05:54:00
2:54 AM,51.1,45.0,80,30.25,10.0,Calm,Calm,-,N/A,,Mostly Cloudy,0,2013-05-27 06:54:00
3:54 AM,50.0,44.1,80,30.25,10.0,Calm,Calm,-,N/A,,Mostly Cloudy,0,2013-05-27 07:54:00
4:54 AM,48.9,45.0,86,30.25,10.0,Calm,Calm,-,N/A,,Clear,0,2013-05-27 08:54:00
5:54 AM,45.0,42.1,90,30.27,10.0,SW,4.6,-,N/A,,Clear,220,2013-05-27 09:54:00
6:54 AM,50.0,45.0,83,30.28,10.0,Calm,Calm,-,N/A,,Scattered Clouds,0,2013-05-27 10:54:00
7:54 AM,57.0,46.0,67,30.29,10.0,Calm,Calm,-,N/A,,Mostly Cloudy,0,2013-05-27 11:54:00
8:54 AM,64.9,44.1,47,30.30,10.0,ENE,3.5,-,N/A,,Mostly Cloudy,70,2013-05-27 12:54:00
9:54 AM,68.0,43.0,40,30.29,10.0,Calm,Calm,-,N/A,,Mostly Cloudy,0,2013-05-27 13:54:00
10:54 AM,72.0,45.0,38,30.29,10.0,Variable,3.5,-,N/A,,Mostly Cloudy,0,2013-05-27 14:54:00
11:54 AM,73.9,50.0,43,30.27,10.0,South,9.2,-,N/A,,Mostly Cloudy,190,2013-05-27 15:54:00
12:54 PM,75.9,50.0,40,30.26,10.0,SW,9.2,18.4,N/A,,Overcast,220,2013-05-27 16:54:00
1:54 PM,75.9,46.9,36,30.26,10.0,SW,9.2,-,N/A,,Overcast,230,2013-05-27 17:54:00
2:54 PM,75.0,48.9,40,30.24,10.0,Variable,3.5,-,N/A,,Overcast,0,2013-05-27 18:54:00
3:54 PM,78.1,51.1,39,30.22,10.0,West,5.8,-,N/A,,Mostly Cloudy,280,2013-05-27 19:54:00
4:54 PM,77.0,52.0,42,30.20,10.0,West,10.4,-,N/A,,Mostly Cloudy,260,2013-05-27 20:54:00
5:54 PM,75.9,52.0,43,30.20,10.0,WSW,8.1,-,N/A,,Overcast,250,2013-05-27 21:54:00
6:54 PM,72.0,53.1,51,30.21,10.0,NE,6.9,-,0.00,,Overcast,50,2013-05-27 22:54:00
7:54 PM,69.1,54.0,58,30.20,10.0,NE,6.9,-,0.00,,Mostly Cloudy,50,2013-05-27 23:54:00
8:54 PM,66.0,54.0,65,30.19,10.0,Calm,Calm,-,N/A,,Mostly Cloudy,0,2013-05-28 00:54:00
9:54 PM,66.9,55.0,66,30.21,10.0,Calm,Calm,-,N/A,,Overcast,0,2013-05-28 01:54:00
10:54 PM,66.0,54.0,65,30.22,10.0,Calm,Calm,-,N/A,,Mostly Cloudy,0,2013-05-28 02:54:00
11:54 PM,64.0,55.9,75,30.22,10.0,SSE,3.5,-,N/A,,Mostly Cloudy,150,2013-05-28 03:54:00